Wind_Speed
11 11 11 10 11 11 11 12 12 13 13 14 16 18 18 19 20 20 21 21 19 20 19 19 19 19 19 18 19 18 17 18 17 18 18 17 17 18 18 19 20 22 24 24 25 26 28
13 12 12 13 13 14 14 15 15 16 16 19 21 21 23 23 23 24 23 22 22 21 21 21 22 21 21 21 21 19 19 20 20 20 20 20 20 21 22 23 24 23 25 26 27 28 29
14 13 14 15 16 16 17 17 18 18 19 22 23 24 26 24 22 23 23 22 22 22 22 23 24 25 24 22 22 22 22 21 21 22 23 23 24 24 25 26 27 27 28 31 29 30 30
15 15 17 18 19 19 19 19 20 21 22 24 26 27 24 23 22 20 21 21 20 20 21 22 22 22 24 24 24 24 23 23 23 24 25 26 26 27 28 29 31 31 31 31 34 33 33
17 17 19 20 21 21 22 22 23 25 25 26 27 26 24 21 21 23 22 22 21 21 21 21 21 21 22 23 24 25 25 24 27 27 27 28 29 29 29 30 32 33 33 33 34 32 34
18 19 21 21 23 25 26 27 27 26 26 24 22 21 21 22 22 21 21 22 22 21 21 22 22 22 23 22 23 24 27 27 27 28 30 31 31 31 31 32 32 33 34 34 33 32 32
19 21 22 24 24 20 20 22 23 22 21 21 21 20 20 22 21 22 24 25 24 23 24 25 26 26 26 27 26 26 27 28 28 30 31 32 33 34 34 35 34 35 36 34 31 32 31
21 21 20 18 17 15 16 17 18 18 19 19 19 19 20 22 24 27 26 27 27 25 19 26 27 30 30 27 28 29 31 31 30 32 33 34 34 36 35 36 35 36 37 32 34 32 33
17 16 15 14 15 16 17 17 17 17 18 20 21 23 25 24 26 28 31 32 32 32 33 21 30 24 26 30 31 31 33 34 34 32 36 36 34 34 35 36 37 35 35 35 36 30 29
15 15 15 15 17 17 16 17 19 21 22 24 26 28 29 31 31 33 34 37 36 35 34 34 29 30 30 33 32 33 34 36 36 36 35 37 34 35 36 36 37 39 36 34 34 34 35
16 17 18 19 18 18 20 21 23 26 28 30 31 33 34 36 38 37 36 34 33 29 30 31 32 32 32 33 36 35 37 38 38 38 38 36 36 36 38 34 36 38 38 35 32 34 35
18 19 20 21 21 22 24 26 28 31 33 35 36 37 38 35 31 29 25 23 25 25 29 33 34 35 37 37 38 40 42 43 43 43 43 39 39 39 37 37 38 38 36 36 35 33 32
21 22 21 21 23 26 28 31 34 36 38 37 37 35 27 22 19 21 23 27 26 28 31 34 37 38 40 37 39 40 42 43 45 47 44 44 43 42 41 40 38 35 35 34 34 34 33
22 21 20 22 26 30 33 36 38 40 40 38 31 22 20 20 22 24 27 28 29 33 35 38 39 41 41 41 42 45 45 44 44 45 47 47 45 42 42 40 38 35 31 30 36 38 35
19 20 24 28 32 36 39 42 42 39 37 29 22 20 21 23 26 27 30 31 35 39 40 41 40 41 44 48 48 47 46 45 45 46 45 44 43 43 43 42 40 36 33 32 33 35 38
20 25 29 33 37 39 40 41 41 37 27 22 20 19 22 24 27 31 33 35 39 41 41 44 47 50 49 48 50 49 48 47 47 48 49 48 47 44 41 41 41 40 37 37 36 37 40
29 31 32 34 36 36 38 39 35 30 23 22 20 21 25 29 33 34 37 39 42 45 47 50 53 53 51 53 50 47 49 46 46 47 48 49 49 47 44 41 40 41 40 38 39 40 41
27 27 33 33 35 39 39 34 29 26 27 24 25 26 27 34 35 38 41 45 46 49 54 55 54 53 55 55 50 47 47 46 45 47 47 46 47 47 45 44 45 46 41 39 38 38 40
26 27 32 35 38 39 38 33 28 28 27 28 29 33 35 36 40 43 46 49 52 54 56 56 55 57 58 57 51 48 47 45 44 42 43 43 44 44 44 43 39 40 44 43 39 38 39
29 31 34 39 40 41 39 37 34 31 31 32 32 36 39 40 43 47 52 56 56 57 57 56 56 57 58 53 47 46 44 46 42 38 39 40 40 41 41 39 38 38 37 37 41 45 43
32 35 39 41 42 39 33 31 31 33 33 34 37 40 42 45 46 51 55 57 59 60 61 61 60 59 57 53 48 48 47 44 43 41 41 41 41 40 37 40 40 37 35 35 38 40 40
34 40 42 43 39 33 31 32 31 35 37 39 42 45 48 50 53 56 61 61 61 62 61 60 61 59 59 57 55 52 51 50 47 45 45 47 44 44 40 40 41 38 36 37 32 30 35
39 39 40 39 37 35 35 34 36 38 40 44 46 48 51 55 59 61 63 63 63 64 63 65 66 65 64 64 63 60 57 55 53 51 50 49 48 47 45 43 41 39 41 37 35 36 34
39 39 40 38 38 38 37 38 40 42 45 47 49 52 55 58 62 64 64 66 67 68 71 70 72 73 70 69 68 66 64 60 59 55 55 53 51 52 49 46 44 40 40 37 35 34 30
40 40 41 40 41 41 41 41 43 46 48 52 54 57 60 63 66 67 68 71 73 75 78 79 77 76 75 73 71 69 65 63 60 59 57 56 56 54 52 51 46 43 43 40 40 40 34
39 42 44 42 42 44 45 46 48 51 53 56 58 61 64 67 69 73 76 79 81 82 81 80 78 73 69 65 60 61 61 57 55 56 56 55 55 55 54 53 50 47 43 43 44 43 39
43 45 43 43 45 45 47 49 52 54 57 60 63 65 68 70 73 78 81 81 84 83 82 74 69 53 42 39 35 37 37 38 40 42 44 46 45 48 43 45 49 50 45 42 36 42 44
44 45 43 44 45 47 50 52 54 57 60 62 65 68 70 73 77 80 83 82 76 68 56 47 43 29 23 16 20 22 27 18 19 22 27 34 36 29 29 27 34 48 45 40 42 43 45
44 44 44 45 47 50 51 54 57 59 61 64 67 71 73 76 76 78 76 67 53 41 38 32 29 19 15 14 19 24 16 17 18 23 25 26 25 41 32 28 39 43 47 52 53 53 49
Wind_Direction
259 264 275 292 301 305 307 308 313 316 319 321 323 320 317 315 314 315 314 311 311 307 304 303 303 303 303 300 296 297 294 293 291 290 289 289 292 293 291 293 295 298 300 301 299 295 292
256 264 275 285 293 298 301 302 303 306 307 310 316 317 319 314 311 313 313 311 309 304 302 302 302 303 301 297 297 296 294 292 290 288 286 286 287 290 292 295 296 297 298 302 305 308 309
259 263 271 281 287 290 293 294 295 299 303 309 314 315 318 317 318 316 314 310 306 303 301 300 301 303 303 300 295 295 293 290 287 286 285 284 285 288 291 294 296 299 302 304 311 308 303
261 265 270 275 282 287 289 292 297 301 304 309 312 313 315 317 322 326 327 325 321 315 311 307 305 306 305 304 300 297 294 292 290 287 286 284 284 287 291 294 296 297 300 303 304 305 307
262 269 276 282 286 291 293 296 298 302 305 307 309 314 319 321 324 323 323 325 325 325 323 320 318 316 312 307 303 300 292 288 291 288 285 283 285 286 288 293 295 296 299 303 304 308 308
268 273 282 287 295 299 296 298 302 303 304 306 309 313 315 317 320 323 323 324 324 328 328 329 327 318 315 306 301 299 296 293 290 287 286 284 283 285 287 289 289 293 297 302 305 309 310
271 277 284 290 295 297 300 301 302 307 310 311 312 313 315 317 319 319 319 317 318 325 326 327 321 317 318 311 306 302 297 294 290 284 282 284 283 285 286 285 286 288 293 299 304 306 304
278 282 286 290 294 302 308 309 308 310 312 311 311 312 313 312 313 313 315 316 315 317 322 323 315 319 314 309 308 307 301 301 296 289 287 283 283 282 281 281 283 290 296 302 303 301 298
282 281 285 291 296 300 302 303 305 306 305 306 306 307 308 308 308 308 312 311 312 313 318 313 309 311 309 307 306 304 302 302 298 293 290 287 283 280 279 280 286 291 294 299 298 294 296
288 287 289 292 297 299 299 298 297 297 299 300 302 303 303 303 304 306 306 308 308 312 313 320 317 313 313 310 307 302 300 297 293 290 287 286 282 280 278 282 288 289 293 298 295 295 297
286 290 290 294 295 292 294 294 294 295 297 299 300 301 301 303 303 303 303 306 308 311 315 315 321 322 318 314 311 307 300 294 290 287 284 285 279 273 275 281 281 287 290 292 294 291 290
280 279 281 285 289 291 290 291 293 296 299 300 301 301 302 300 303 305 309 315 317 317 316 320 320 318 312 310 311 308 303 297 290 286 285 281 275 276 278 277 281 285 284 285 286 291 289
278 281 286 293 295 294 295 297 298 298 299 300 301 303 303 306 312 311 313 320 316 318 318 317 315 313 309 309 303 303 301 300 294 288 284 280 279 280 278 278 280 279 283 277 278 283 287
278 283 288 293 300 299 299 298 300 301 300 301 297 295 300 308 315 318 318 317 315 311 313 311 310 308 307 304 304 304 301 297 292 287 287 285 283 277 276 280 277 277 274 273 278 284 287
283 282 287 292 294 296 296 297 297 301 299 294 288 291 307 317 317 314 313 315 309 308 306 306 307 306 306 307 307 303 302 299 293 287 285 281 278 280 278 276 278 273 272 271 276 278 280
283 287 290 292 295 299 300 300 299 296 290 289 289 303 313 315 313 313 309 306 307 307 305 305 306 306 308 307 305 301 303 304 299 292 289 286 282 277 275 274 275 277 274 273 274 277 275
285 291 293 293 293 302 308 307 300 290 281 283 295 304 308 307 306 308 308 306 305 305 304 304 304 305 305 305 303 298 300 297 295 288 286 285 282 280 276 273 272 271 271 273 270 269 272
287 289 298 302 302 301 304 300 294 289 286 295 300 302 304 309 310 310 310 308 305 305 305 303 303 305 306 304 301 297 297 291 290 287 283 283 282 281 280 276 272 264 266 265 268 269 268
292 296 300 303 305 303 301 291 284 287 291 297 301 304 307 307 308 309 309 306 304 302 302 302 304 303 302 301 297 298 296 294 289 287 286 284 281 280 278 276 276 276 269 268 269 267 264
290 297 303 305 306 306 300 292 286 291 293 296 299 304 306 305 308 308 309 307 305 304 302 303 302 299 299 296 294 296 289 288 291 291 289 284 279 277 278 278 276 278 277 273 269 268 268
293 298 301 308 307 304 295 290 292 293 293 298 305 305 304 305 306 307 307 305 304 303 302 301 298 295 294 293 290 285 285 286 283 281 281 279 279 276 274 274 271 271 276 271 268 269 270
298 304 302 305 305 296 294 294 293 294 299 303 304 305 306 305 307 307 305 303 301 300 299 296 294 293 290 288 284 284 283 281 277 275 275 275 276 273 272 270 270 271 268 269 272 274 267
303 304 307 306 302 294 292 295 296 300 301 304 305 306 307 307 306 304 301 301 298 298 296 294 292 290 288 286 284 282 279 276 274 271 269 268 270 269 270 266 264 269 265 264 263 265 270
301 304 306 303 296 293 293 296 298 300 303 303 304 304 305 303 302 302 303 301 300 299 297 295 292 291 288 285 281 278 276 273 270 267 264 264 262 263 265 264 264 267 266 266 262 264 260
296 302 301 295 294 293 293 295 297 300 301 303 302 302 302 302 303 302 302 300 300 300 298 297 293 290 288 285 281 278 275 272 267 264 261 260 260 259 259 260 260 260 261 261 262 265 263
303 302 298 292 290 292 294 297 299 300 301 302 304 304 304 304 304 303 303 303 302 300 297 294 293 292 289 287 282 278 275 268 264 262 261 259 258 257 257 255 256 254 253 257 260 260 260
302 299 294 290 291 294 296 297 298 300 304 304 304 304 305 306 306 305 304 303 302 300 299 298 297 298 294 291 289 285 281 276 270 261 258 259 257 257 253 251 249 248 249 250 246 252 252
298 294 290 291 294 295 296 298 300 303 304 305 305 306 307 308 309 307 305 304 304 304 307 311 313 305 296 260 285 293 297 279 253 253 261 256 245 238 230 234 243 242 238 231 230 238 246
291 289 292 294 296 296 298 300 303 304 306 307 308 308 310 311 310 307 307 307 309 313 317 318 320 310 304 277 282 302 301 316 294 250 249 232 240 221 222 217 235 237 238 234 230 229 233
Height
5817 5818 5818 5818 5818 5818 5817 5817 5816 5815 5814 5813 5811 5810 5808 5806 5805 5803 5801 5800 5798 5796 5795 5793 5792 5792 5791 5789 5787 5786 5785 5784 5782 5782 5780 5779 5777 5776 5774 5773 5771 5768 5766 5765 5763 5760 5757
5815 5816 5816 5816 5816 5816 5815 5815 5814 5813 5811 5810 5809 5807 5805 5803 5801 5799 5797 5796 5794 5792 5791 5790 5789 5787 5787 5786 5783 5782 5781 5779 5778 5777 5776 5774 5773 5772 5770 5768 5766 5764 5762 5760 5756 5753 5750
5813 5814 5814 5814 5813 5813 5813 5812 5811 5809 5808 5807 5805 5803 5801 5798 5797 5795 5793 5791 5790 5788 5787 5786 5785 5783 5782 5782 5780 5778 5776 5775 5773 5772 5771 5770 5768 5767 5765 5763 5761 5759 5756 5753 5751 5748 5745
5811 5811 5811 5811 5810 5810 5809 5809 5808 5807 5805 5803 5801 5799 5797 5794 5793 5791 5790 5787 5786 5784 5782 5781 5780 5779 5778 5776 5775 5773 5772 5770 5769 5767 5766 5764 5763 5761 5759 5758 5755 5753 5751 5748 5744 5741 5737
5808 5808 5808 5808 5807 5807 5806 5805 5804 5803 5801 5799 5797 5795 5794 5792 5789 5788 5786 5784 5782 5780 5779 5777 5776 5775 5773 5772 5770 5769 5766 5765 5763 5762 5760 5758 5757 5756 5753 5751 5748 5746 5744 5741 5738 5734 5729
5805 5805 5805 5804 5804 5803 5802 5801 5800 5798 5796 5794 5792 5791 5790 5788 5787 5784 5783 5780 5778 5777 5776 5774 5772 5772 5769 5766 5763 5762 5760 5759 5758 5756 5754 5753 5750 5749 5746 5744 5741 5738 5735 5734 5730 5728 5723
5801 5801 5801 5801 5800 5798 5797 5796 5795 5794 5792 5791 5789 5788 5786 5785 5783 5781 5779 5778 5777 5776 5772 5770 5767 5765 5765 5762 5760 5757 5753 5752 5751 5750 5748 5745 5744 5742 5739 5736 5734 5732 5729 5726 5724 5720 5716
5798 5798 5797 5796 5795 5794 5793 5792 5791 5790 5789 5787 5785 5784 5783 5781 5779 5777 5775 5773 5771 5771 5772 5767 5762 5760 5757 5755 5754 5752 5749 5747 5744 5742 5740 5739 5738 5735 5732 5729 5727 5724 5721 5720 5716 5713 5708
5794 5793 5793 5792 5791 5790 5790 5788 5787 5786 5785 5784 5782 5781 5778 5777 5774 5772 5768 5767 5764 5762 5762 5764 5759 5755 5752 5750 5747 5744 5742 5739 5737 5735 5731 5730 5730 5727 5724 5722 5719 5717 5714 5712 5708 5706 5703
5791 5790 5789 5788 5787 5786 5785 5784 5783 5782 5781 5780 5778 5775 5773 5770 5769 5765 5763 5759 5757 5755 5752 5753 5749 5746 5745 5742 5740 5736 5734 5732 5729 5726 5723 5721 5721 5718 5715 5714 5711 5709 5708 5704 5701 5697 5694
5786 5786 5785 5784 5783 5781 5781 5780 5779 5777 5775 5773 5771 5768 5766 5763 5760 5758 5755 5751 5749 5747 5745 5743 5740 5738 5735 5734 5731 5729 5726 5722 5720 5717 5716 5714 5711 5708 5706 5707 5702 5701 5700 5697 5694 5690 5685
5781 5780 5779 5779 5778 5777 5776 5774 5773 5771 5769 5766 5763 5760 5757 5754 5751 5749 5747 5744 5743 5742 5737 5736 5733 5731 5728 5725 5722 5719 5716 5713 5709 5707 5704 5704 5700 5699 5698 5696 5694 5692 5690 5689 5685 5682 5678
5776 5776 5776 5775 5774 5772 5770 5768 5766 5763 5760 5757 5754 5751 5747 5745 5744 5742 5739 5738 5737 5734 5732 5730 5726 5723 5720 5716 5713 5709 5707 5704 5699 5694 5694 5692 5692 5690 5689 5687 5684 5683 5681 5679 5677 5675 5673
5770 5770 5769 5768 5767 5766 5764 5761 5759 5756 5752 5749 5746 5743 5741 5739 5737 5735 5733 5732 5729 5726 5723 5721 5718 5714 5710 5706 5702 5699 5697 5695 5690 5683 5679 5678 5680 5680 5679 5677 5676 5674 5673 5671 5666 5665 5664
5765 5764 5763 5762 5760 5758 5756 5752 5750 5748 5744 5741 5738 5737 5735 5732 5730 5728 5726 5724 5721 5718 5716 5712 5709 5705 5702 5696 5691 5685 5685 5682 5678 5672 5668 5664 5666 5667 5665 5664 5664 5664 5663 5662 5659 5657 5654
5760 5758 5757 5755 5753 5750 5747 5744 5740 5739 5736 5735 5733 5729 5727 5724 5722 5721 5718 5715 5712 5709 5706 5701 5698 5694 5691 5687 5680 5671 5671 5669 5666 5661 5655 5652 5651 5654 5654 5654 5652 5651 5652 5651 5650 5647 5644
5754 5752 5750 5747 5745 5742 5739 5735 5732 5729 5728 5727 5725 5722 5720 5718 5716 5713 5710 5707 5702 5698 5695 5691 5686 5682 5678 5673 5669 5663 5657 5652 5651 5649 5643 5640 5638 5643 5642 5642 5641 5640 5639 5640 5639 5638 5636
5749 5746 5744 5740 5737 5734 5730 5727 5725 5722 5721 5719 5717 5716 5712 5710 5707 5703 5700 5696 5693 5687 5682 5677 5672 5668 5663 5658 5656 5649 5645 5639 5637 5635 5632 5629 5625 5627 5628 5628 5628 5626 5626 5627 5626 5629 5628
5741 5738 5736 5732 5729 5725 5722 5719 5718 5716 5713 5711 5709 5706 5702 5698 5695 5692 5690 5686 5680 5676 5671 5664 5658 5653 5648 5644 5637 5635 5631 5629 5624 5623 5621 5618 5615 5614 5615 5616 5616 5614 5614 5614 5614 5615 5616
5733 5731 5728 5724 5720 5716 5713 5711 5709 5707 5705 5704 5701 5697 5693 5689 5684 5680 5677 5671 5665 5660 5655 5649 5643 5636 5632 5630 5623 5622 5617 5613 5613 5611 5609 5605 5605 5603 5604 5603 5601 5602 5604 5603 5601 5601 5602
5725 5722 5719 5715 5712 5708 5705 5703 5701 5699 5696 5693 5689 5687 5682 5678 5673 5667 5662 5656 5651 5645 5639 5631 5626 5619 5617 5615 5612 5605 5602 5603 5601 5597 5595 5593 5592 5591 5593 5590 5590 5592 5593 5593 5591 5591 5589
5718 5715 5711 5707 5703 5700 5698 5696 5694 5692 5688 5684 5680 5677 5671 5665 5658 5652 5645 5640 5635 5629 5623 5617 5607 5604 5598 5595 5592 5591 5588 5586 5586 5586 5581 5578 5580 5578 5580 5579 5578 5580 5582 5580 5582 5581 5579
5710 5706 5702 5698 5695 5693 5690 5687 5685 5682 5678 5674 5670 5665 5658 5651 5644 5638 5631 5624 5617 5610 5607 5596 5590 5586 5581 5575 5571 5569 5568 5569 5568 5567 5565 5563 5562 5562 5565 5567 5567 5570 5567 5569 5570 5569 5572
5701 5697 5692 5689 5686 5684 5681 5678 5675 5671 5668 5663 5658 5652 5647 5638 5629 5621 5615 5606 5598 5591 5583 5578 5567 5560 5557 5553 5549 5547 5546 5546 5545 5547 5545 5546 5545 5545 5549 5550 5554 5557 5554 5555 5556 5558 5562
5692 5688 5683 5679 5677 5675 5671 5667 5663 5659 5654 5649 5644 5639 5633 5623 5615 5606 5597 5589 5581 5571 5560 5551 5543 5535 5529 5524 5520 5519 5522 5522 5522 5523 5524 5525 5525 5528 5531 5534 5541 5540 5541 5543 5544 5546 5550
5682 5678 5674 5670 5667 5664 5660 5656 5652 5647 5642 5635 5629 5623 5616 5608 5598 5586 5577 5565 5557 5549 5542 5528 5518 5508 5500 5495 5493 5491 5491 5497 5500 5499 5501 5505 5506 5510 5514 5516 5521 5525 5529 5530 5530 5532 5536
5672 5668 5663 5660 5656 5653 5648 5644 5639 5633 5627 5620 5614 5608 5600 5591 5579 5566 5553 5546 5533 5519 5509 5500 5493 5491 5481 5478 5475 5474 5475 5475 5478 5480 5485 5486 5489 5494 5495 5498 5501 5508 5514 5518 5519 5519 5521
5661 5658 5653 5649 5645 5641 5637 5631 5625 5618 5612 5605 5596 5590 5585 5575 5560 5543 5527 5517 5508 5493 5485 5480 5478 5473 5472 5470 5469 5468 5467 5468 5468 5468 5469 5471 5476 5479 5479 5483 5487 5491 5499 5503 5501 5504 5507
5651 5648 5644 5639 5635 5631 5625 5619 5612 5604 5597 5590 5580 5572 5565 5555 5543 5523 5507 5495 5487 5482 5477 5473 5469 5466 5465 5466 5465 5464 5461 5460 5460 5464 5459 5464 5463 5466 5469 5473 5469 5474 5480 5482 5485 5488 5492